• In Uzbekistan
  • List of Countries
  • For 7 days
  • Water Temperature
  • Satellite Maps
  • Weather Map
  • Weather Widgets
  • user-avatar
    Login

    Hourly Weather Edmundston

    Today, 24 October, Wednesday

    Time Temperature Precipitation Wind Pressure Humidity
    00:00 +5°C° 0 mm 1 mps 696 mmHg 79%
    01:00 +5°C° 0 mm 1 mps 695 mmHg 80%
    02:00 +5°C° 0 mm 1 mps 695 mmHg 80%
    03:00 +5°C° 0 mm 1 mps 695 mmHg 80%
    04:00 +4°C° 0 mm 1 mps 695 mmHg 81%
    05:00 +3°C° 0 mm 0 mps 695 mmHg 80%
    06:00 +3°C° 0 mm 0 mps 695 mmHg 80%
    07:00 +4°C° 0 mm 0 mps 695 mmHg 80%
    08:00 +5°C° 0 mm 0 mps 695 mmHg 74%
    09:00 +8°C° 0 mm 1 mps 695 mmHg 68%
    10:00 +9°C° 0 mm 1 mps 695 mmHg 63%
    11:00 +10°C° 0 mm 1 mps 695 mmHg 60%
    12:00 +11°C° 0 mm 1 mps 695 mmHg 58%
    13:00 +11°C° 0 mm 1 mps 695 mmHg 55%
    14:00 +11°C° 0 mm 1 mps 695 mmHg 60%
    15:00 +10°C° 0 mm 1 mps 695 mmHg 64%
    16:00 +9°C° 0 mm 1 mps 695 mmHg 68%
    17:00 +8°C° 0 mm 1 mps 695 mmHg 70%
    18:00 +7°C° 0 mm 2 mps 695 mmHg 73%
    19:00 +6°C° 0 mm 2 mps 695 mmHg 75%
    20:00 +6°C° 0 mm 2 mps 695 mmHg 76%
    21:00 +6°C° 0 mm 2 mps 695 mmHg 77%
    22:00 +6°C° 0 mm 2 mps 696 mmHg 78%
    23:00 +6°C° 0 mm 2 mps 696 mmHg 79%

    Tomorrow, 25 October, Thursday

    Time Temperature Precipitation Wind Pressure Humidity
    00:00 +5°C° 0 mm 2 mps 696 mmHg 79%
    01:00 +5°C° 0 mm 2 mps 696 mmHg 80%
    02:00 +4°C° 0 mm 3 mps 696 mmHg 81%
    03:00 +4°C° 0 mm 3 mps 696 mmHg 82%
    04:00 +3°C° 0 mm 3 mps 697 mmHg 83%
    05:00 +3°C° 0 mm 3 mps 697 mmHg 82%
    06:00 +3°C° 0 mm 3 mps 697 mmHg 81%
    07:00 +3°C° 0 mm 3 mps 697 mmHg 80%
    08:00 +5°C° 0 mm 3 mps 698 mmHg 74%
    09:00 +7°C° 0 mm 3 mps 698 mmHg 67%
    10:00 +9°C° 0 mm 3 mps 698 mmHg 61%
    11:00 +10°C° 0 mm 3 mps 697 mmHg 58%
    12:00 +12°C° 0 mm 2 mps 697 mmHg 55%
    13:00 +13°C° 0 mm 2 mps 697 mmHg 52%
    14:00 +12°C° 0 mm 2 mps 697 mmHg 56%
    15:00 +11°C° 0 mm 1 mps 697 mmHg 60%
    16:00 +10°C° 0 mm 1 mps 696 mmHg 63%
    17:00 +9°C° 0 mm 1 mps 696 mmHg 65%
    18:00 +8°C° 0 mm 2 mps 696 mmHg 66%
    19:00 +7°C° 0 mm 2 mps 696 mmHg 68%
    20:00 +7°C° 0 mm 2 mps 696 mmHg 68%
    21:00 +7°C° 0 mm 1 mps 696 mmHg 69%
    22:00 +7°C° 0 mm 1 mps 695 mmHg 69%
    23:00 +7°C° 0 mm 1 mps 696 mmHg 72%

    Day after tomorrow, 26 October, Friday

    Time Temperature Precipitation Wind Pressure Humidity
    00:00 +6°C° 0 mm 2 mps 696 mmHg 74%
    01:00 +5°C° 0 mm 2 mps 696 mmHg 77%
    02:00 +4°C° 0.3 mm 3 mps 696 mmHg 80%
    03:00 +4°C° 0.3 mm 3 mps 696 mmHg 84%
    04:00 +4°C° 0.3 mm 4 mps 696 mmHg 87%
    05:00 +4°C° 0.4 mm 4 mps 697 mmHg 89%
    06:00 +3°C° 0.4 mm 3 mps 697 mmHg 90%
    07:00 +3°C° 0.4 mm 3 mps 697 mmHg 91%
    08:00 +4°C° 0 mm 3 mps 697 mmHg 82%
    09:00 +7°C° 0 mm 3 mps 697 mmHg 73%
    10:00 +8°C° 0 mm 3 mps 697 mmHg 64%
    11:00 +9°C° 0 mm 3 mps 697 mmHg 57%
    12:00 +9°C° 0 mm 2 mps 697 mmHg 51%
    13:00 +10°C° 0 mm 2 mps 696 mmHg 45%
    14:00 +9°C° 0 mm 2 mps 696 mmHg 49%
    15:00 +9°C° 0 mm 1 mps 696 mmHg 52%
    16:00 +8°C° 0 mm 1 mps 695 mmHg 56%
    17:00 +6°C° 0 mm 2 mps 695 mmHg 58%
    18:00 +5°C° 0 mm 2 mps 695 mmHg 60%
    19:00 +3°C° 0 mm 3 mps 695 mmHg 62%
    20:00 +3°C° 0 mm 3 mps 694 mmHg 62%
    21:00 +3°C° 0 mm 3 mps 694 mmHg 62%
    22:00 +3°C° 0 mm 3 mps 694 mmHg 62%
    23:00 +3°C° 0.6 mm 3 mps 694 mmHg 68%

    27 October, Saturday

    Time Temperature Precipitation Wind Pressure Humidity
    00:00 +3°C° 0.6 mm 4 mps 694 mmHg 73%
    01:00 +3°C° 0.6 mm 4 mps 695 mmHg 78%
    02:00 +3°C° 0.6 mm 5 mps 696 mmHg 75%
    03:00 +3°C° 0.6 mm 6 mps 696 mmHg 73%
    04:00 +3°C° 0.6 mm 7 mps 697 mmHg 71%
    05:00 +3°C° 0.2 mm 6 mps 698 mmHg 70%
    06:00 +3°C° 0.2 mm 6 mps 698 mmHg 69%
    07:00 +3°C° 0.2 mm 5 mps 699 mmHg 68%
    08:00 +3°C° 0 mm 6 mps 700 mmHg 65%
    09:00 +4°C° 0 mm 7 mps 700 mmHg 61%
    10:00 +5°C° 0 mm 8 mps 701 mmHg 58%
    11:00 +5°C° 0 mm 8 mps 701 mmHg 55%
    12:00 +6°C° 0 mm 8 mps 702 mmHg 53%
    13:00 +8°C° 0 mm 7 mps 702 mmHg 50%
    14:00 +6°C° 0 mm 7 mps 703 mmHg 53%
    15:00 +7°C° 0 mm 6 mps 703 mmHg 55%
    16:00 +6°C° 0 mm 5 mps 704 mmHg 57%
    17:00 +5°C° 0 mm 5 mps 704 mmHg 57%
    18:00 +5°C° 0 mm 5 mps 705 mmHg 58%
    19:00 +4°C° 0 mm 4 mps 706 mmHg 58%
    20:00 +3°C° 0 mm 4 mps 706 mmHg 60%
    21:00 +3°C° 0 mm 4 mps 706 mmHg 61%
    22:00 +1°C° 0 mm 4 mps 707 mmHg 63%
    23:00 +2°C° 0 mm 3 mps 707 mmHg 64%

    28 October, Sunday

    Time Temperature Precipitation Wind Pressure Humidity
    00:00 +2°C° 0 mm 3 mps 707 mmHg 66%
    01:00 +2°C° 0 mm 3 mps 707 mmHg 67%
    02:00 +2°C° 0 mm 3 mps 706 mmHg 66%
    03:00 +2°C° 0 mm 3 mps 706 mmHg 65%
    04:00 +1°C° 0 mm 3 mps 706 mmHg 64%
    05:00 +1°C° 0 mm 3 mps 705 mmHg 62%
    06:00 +1°C° 0 mm 3 mps 705 mmHg 60%
    07:00 +2°C° 0 mm 3 mps 705 mmHg 59%
    08:00 +3°C° 0 mm 4 mps 704 mmHg 53%
    09:00 +5°C° 0 mm 5 mps 703 mmHg 48%
    10:00 +7°C° 0 mm 5 mps 703 mmHg 43%
    11:00 +8°C° 0 mm 5 mps 702 mmHg 42%
    12:00 +9°C° 0 mm 5 mps 701 mmHg 41%
    13:00 +10°C° 0 mm 5 mps 700 mmHg 41%
    14:00 +9°C° 0 mm 5 mps 700 mmHg 45%
    15:00 +8°C° 0 mm 4 mps 699 mmHg 49%
    16:00 +7°C° 0 mm 4 mps 698 mmHg 53%
    17:00 +6°C° 0 mm 4 mps 698 mmHg 53%
    18:00 +5°C° 0 mm 3 mps 697 mmHg 54%
    19:00 +5°C° 0 mm 3 mps 697 mmHg 54%
    20:00 +5°C° 0 mm 3 mps 696 mmHg 54%
    21:00 +4°C° 0 mm 3 mps 695 mmHg 54%
    22:00 +4°C° 0 mm 3 mps 694 mmHg 54%
    23:00 +4°C° 0 mm 3 mps 694 mmHg 53%

    29 October, Monday

    Time Temperature Precipitation Wind Pressure Humidity
    00:00 +4°C° 0 mm 3 mps 693 mmHg 53%
    01:00 +3°C° 0 mm 3 mps 693 mmHg 53%
    02:00 +3°C° 0 mm 3 mps 692 mmHg 52%
    03:00 +3°C° 0 mm 3 mps 691 mmHg 52%
    04:00 +3°C° 0 mm 3 mps 690 mmHg 52%
    05:00 +3°C° 0 mm 3 mps 690 mmHg 52%
    06:00 +3°C° 0 mm 3 mps 689 mmHg 52%
    07:00 +3°C° 0 mm 3 mps 688 mmHg 52%
    08:00 +5°C° 0 mm 3 mps 687 mmHg 50%
    09:00 +6°C° 0 mm 4 mps 686 mmHg 47%
    10:00 +8°C° 0 mm 4 mps 686 mmHg 45%
    11:00 +10°C° 0 mm 4 mps 686 mmHg 45%
    12:00 +11°C° 0 mm 4 mps 685 mmHg 45%
    13:00 +12°C° 0 mm 4 mps 685 mmHg 46%
    14:00 +11°C° 0 mm 4 mps 686 mmHg 51%
    15:00 +8°C° 0 mm 4 mps 686 mmHg 56%
    16:00 +8°C° 0 mm 3 mps 686 mmHg 61%
    17:00 +6°C° 0.2 mm 4 mps 687 mmHg 67%
    18:00 +6°C° 0.2 mm 5 mps 687 mmHg 73%
    19:00 +5°C° 0.2 mm 6 mps 688 mmHg 79%
    20:00 +5°C° 0.2 mm 6 mps 689 mmHg 75%
    21:00 +4°C° 0.2 mm 6 mps 689 mmHg 72%
    22:00 +4°C° 0.2 mm 7 mps 690 mmHg 69%
    23:00 +4°C° 0 mm 7 mps 690 mmHg 68%

    30 October, Tuesday

    Time Temperature Precipitation Wind Pressure Humidity
    00:00 +4°C° 0 mm 8 mps 690 mmHg 67%
    01:00 +4°C° 0 mm 8 mps 691 mmHg 67%
    02:00 +3°C° 0.3 mm 9 mps 691 mmHg 68%
    03:00 +3°C° 0.3 mm 9 mps 692 mmHg 69%
    04:00 +2°C° 0.3 mm 10 mps 692 mmHg 69%
    05:00 +2°C° 0.3 mm 10 mps 693 mmHg 68%
    06:00 +2°C° 0.3 mm 10 mps 694 mmHg 67%
    07:00 +2°C° 0.3 mm 10 mps 694 mmHg 66%
    08:00 +2°C° 0.1 mm 10 mps 695 mmHg 64%
    09:00 +2°C° 0.1 mm 10 mps 696 mmHg 61%
    10:00 +3°C° 0.1 mm 10 mps 696 mmHg 59%
    11:00 +3°C° 0 mm 10 mps 696 mmHg 55%
    12:00 +5°C° 0 mm 10 mps 697 mmHg 52%
    13:00 +5°C° 0 mm 10 mps 697 mmHg 48%
    14:00 +5°C° 0 mm 9 mps 697 mmHg 51%
    15:00 +4°C° 0 mm 8 mps 698 mmHg 53%
    16:00 +3°C° 0 mm 6 mps 698 mmHg 55%
    17:00 +3°C° 0 mm 6 mps 699 mmHg 57%
    18:00 +2°C° 0 mm 6 mps 699 mmHg 59%
    19:00 +2°C° 0 mm 6 mps 699 mmHg 62%
    20:00 +1°C° 0 mm 5 mps 699 mmHg 65%
    21:00 0°C° 0 mm 4 mps 699 mmHg 68%
    22:00 0°C° 0 mm 4 mps 700 mmHg 71%
    23:00 0°C° 0 mm 3 mps 699 mmHg 73%
    Show more